Location: Montbazon
(47.2835°N, 0.6999°E)
Time: 17:08:59
(UTC+00:00)

Meteor 1-24 Rocket - Pass Details

Date: 08 November 2025
Orbit: 788 x 926 km, 81.3° (Epoch: 09 December)

Event Time Altitude Azimuth Distance (km) Brightness Sun altitude
Rises 05:24:12 0° 205° (SSW) 3,494 6.7 -14.9°
Reaches altitude 10° 05:26:45 10° 210° (SSW) 2,539 6.0 -14.5°
Maximum altitude 05:32:21 51° 286° (WNW) 1,073 3.9 -13.6°
Drops below altitude 10° 05:37:48 10° 2° (N) 2,465 6.0 -12.7°
Sets 05:40:16 0° 8° (N) 3,383 6.8 -12.3°
